Overview Statistics Trail Chart Weather Telemetry Raw packets
 

This is the latest recevied weather packets stored in our database for station/object HP1MRA-15. If no packets are shown the sender has not sent any weather packets the latest 10 day(s).

<< 14 15 16 17 18 19 20 >>
Time Temp. Humidity Pressure Rain* Wind** Luminosity Snow
1788565290 31.67° C 65% 999.7 hPa 0 mm - - -
1788564990 32.22° C 64% 999.7 hPa 0 mm - - -
1788564689 32.22° C 64% 999.6 hPa 0 mm - - -
1788564689 32.22° C 64% 999.5 hPa 0 mm - - -
1788564390 - - 999.5 hPa 0 mm - - -
1788564090 33.33° C 64% 999.3 hPa 0 mm - - -
1788563787 33.33° C 63% 999.3 hPa 0 mm - - -
1788563490 33.33° C 64% 999.3 hPa 0 mm - - -
1788563190 32.78° C 64% 999.3 hPa 0 mm - - -
1788562889 32.78° C 64% 999.2 hPa 0 mm - - -
1788562588 32.22° C 64% 999.2 hPa 0 mm - - -
1788562288 32.22° C 64% 999.1 hPa 0 mm - - -
1788561988 32.78° C 64% 999.1 hPa 0 mm - - -
1788561987 32.78° C 64% 999.1 hPa 0 mm - - -
1788561688 32.78° C 63% 999.1 hPa 0 mm - - -
1788561388 32.78° C 64% 999.2 hPa 0 mm - - -
1788561089 32.78° C 64% 999.3 hPa 0 mm - - -
1788561088 32.78° C 64% 999.3 hPa 0 mm - - -
1788560787 32.78° C 64% 999.3 hPa 0 mm - - -
1788560488 32.78° C 64% 999.1 hPa 0 mm - - -
1788560188 32.78° C 64% 999.2 hPa 0 mm - - -
1788560187 32.78° C 64% 999.2 hPa 0 mm - - -
1788559888 32.78° C 64% 999.2 hPa 0 mm - - -
1788559588 32.22° C 63% 999.3 hPa 0 mm - - -
1788559288 32.22° C 63% 999.4 hPa 0 mm - - -

* Rain latest hour (hover to see other rain measurements)
** Current wind speed in m/s (hover to see current wind gust speed)